Notices

What's New in latest Release from April 7th, 2021:

- Updated Glossary, including Speed of Maximum Gust, and Total Hourly Precipitation

- Updated national and regional climate services offices contacts and prices information

- Addition of station inventory lists for 1981-2010, 1971-2000, and 1961-1990 Normals.

If you haven't already, please take our survey and provide feedback about our website: https://eccc.sondage-survey.ca/f/LanguageSelection.aspx?s=442ca660-fcf1-47c0-95a9-59707d6fd709

Hourly Data Report for October 11, 2019

PINAWA
MANITOBA
Current Station Operator: ECCC - MSC

50°10'38.020" N
96°03'53.000" W
268.00 m
503B1ER
71448
WEA

Download Data

Hourly Data (October 2019)
Hourly Data Report for October 11, 2019
TIME
LST
Temp Definition
°C
Dew Point Definition
°C
Rel Hum Definition
%
Precip. Amount Definition
mm

Wind Dir Definition
10's deg

Wind Spd Definition
km/h
Visibility Definition
km
Stn Press Definition
kPa
Hmdx Definition


Wind Chill Definition


Weather Definition


00:00 0.4 LegendMM LegendMM LegendMM 36 15   97.80     LegendNANA
01:00 0.2 LegendMM LegendMM LegendMM 36 15   97.73     LegendNANA
02:00 0.3 LegendMM LegendMM LegendMM 36 16   97.68     LegendNANA
03:00 0.3 LegendMM LegendMM LegendMM 35 19   97.52     LegendNANA
04:00 0.2 LegendMM LegendMM LegendMM 35 19   97.41     LegendNANA
05:00 0.2 LegendMM LegendMM LegendMM 36 17   97.30     LegendNANA
06:00 0.0 LegendMM LegendMM LegendMM 34 19   97.29   -5 LegendNANA
07:00 0.1 LegendMM LegendMM LegendMM 36 19   97.09     LegendNANA
08:00 0.3 LegendMM LegendMM LegendMM 36 17   96.96     LegendNANA
09:00 0.2 LegendMM LegendMM LegendMM 36 24   96.80     LegendNANA
10:00 0.0 LegendMM LegendMM LegendMM 36 20   96.72   -5 LegendNANA
11:00 0.0 LegendMM LegendMM LegendMM 35 15   96.65   -4 LegendNANA
12:00 0.4 LegendMM LegendMM LegendMM 36 13   96.58     LegendNANA
13:00 0.5 LegendMM LegendMM LegendMM 1 17   96.42     LegendNANA
14:00 0.6 LegendMM LegendMM LegendMM 1 11   96.37     LegendNANA
15:00 0.6 LegendMM LegendMM LegendMM 3 16   96.30     LegendNANA
16:00 0.9 LegendMM LegendMM LegendMM 2 14   96.27     LegendNANA
17:00 1.1 LegendMM LegendMM LegendMM 2 12   96.30     LegendNANA
18:00 0.8 LegendMM LegendMM LegendMM 2 10   96.30     LegendNANA
19:00 1.2 LegendMM LegendMM LegendMM 3 12   96.27     LegendNANA
20:00 1.2 LegendMM LegendMM LegendMM 2 8   96.24     LegendNANA
21:00 1.3 LegendMM LegendMM LegendMM 2 7   96.24     LegendNANA
22:00 1.3 LegendMM LegendMM LegendMM 3 7   96.20     LegendNANA
23:00 1.2 LegendMM LegendMM LegendMM 1 5   96.15     LegendNANA

Notes on Data Quality.

Legend

  • E = Estimated
  • M = Missing
  • NA = Not Available*
  • [empty] = Indicates an unobserved value
Date modified: